[[{"header":{"parameterUnit":"m.s-1","parameterCategory":1,"la1":30.2991,"la2":30.254,"lo1":-89.0895,"lo2":-89.0444,"dy":0.0017,"dx":0.0017,"nx":28,"ny":28,"refTime":"2024-05-02T21:00:00:Z","depth":0,"parameterNumber":2,"parameterNumberName":"U-component_of_WINDS"},"data":[0,0,0,0,0,0,0,0,0,0,0,0,0,0,0,0,0,0,0,0,0,0,0,0,0,0,0,0,0,0,0,0,0,0,0,0,0,0,0,0,0,0,0,0,0,0,0,0,0,0,0,0,0,0,0,0,0,0,-2.7397,-2.7398,0,-2.7465,-2.7466,-2.7466,-2.7478,-2.7478,-2.7477,-2.7476,-2.7548,-2.7551,-2.7553,0,0,0,0,0,0,0,0,0,0,0,0,0,-2.7282,-2.7284,-2.7397,-2.7398,-2.7399,-2.7465,-2.7466,-2.7467,-2.7478,-2.7477,-2.7477,-2.7476,-2.7548,-2.7551,-2.7553,0,0,0,0,0,0,0,0,0,0,0,0,0,-2.7339,-2.7284,-2.7397,-2.7412,-2.7414,-2.7465,-2.7466,-2.7467,-2.7478,-2.7477,-2.7477,-2.7476,-2.7547,-2.755,-2.7554,-2.7594,0,0,-2.7565,-2.7567,0,0,0,0,0,0,0,0,-2.7336,-2.7343,-2.7409,-2.7411,-2.7414,-2.7462,-2.7451,-2.751,-2.7479,-2.7454,-2.7476,-2.7475,-2.7521,-2.7526,-2.7541,-2.7597,-2.7601,-2.7565,-2.7568,-2.7569,-2.757,0,0,0,0,0,0,0,-2.7332,-2.734,-2.7424,-2.741,-2.7413,-2.7417,-2.7425,-2.7463,-2.7492,-2.7456,-2.7457,-2.7465,-2.7522,-2.7537,-2.7543,-2.7602,-2.7565,-2.7569,-2.7571,-2.7572,-2.7696,-2.7697,0,0,0,0,0,0,-2.7324,-2.7337,-2.7422,-2.7426,-2.7372,-2.742,-2.7428,-2.7448,-2.7491,-2.7497,-2.7466,-2.7465,-2.7532,-2.7539,-2.7545,-2.7596,-2.7569,-2.7573,-2.7575,-2.7695,-2.7696,-2.7698,0,0,0,0,0,0,-2.7322,-2.7332,-2.7419,-2.7382,-2.7393,-2.7423,-2.7445,-2.7449,-2.7465,-2.7498,-2.7504,-2.7476,-2.7531,-2.754,-2.7582,-2.7598,-2.7574,-2.7578,-2.7694,-2.7696,-2.7697,-2.7696,0,0,0,0,0,0,-2.7319,-2.7331,-2.7345,-2.7382,-2.7395,-2.7453,-2.7446,-2.7451,-2.7471,-2.7471,-2.7509,-2.7515,-2.7531,-2.7576,-2.7586,-2.7603,-2.7581,-2.7692,-2.7695,-2.7697,-2.7695,-2.7697,-2.77,0,0,0,0,0,-2.7314,-2.7343,-2.7346,-2.7356,-2.7414,-2.7454,-2.7462,-2.7479,-2.7472,-2.7488,-2.751,-2.7514,-2.7596,-2.7581,-2.7591,-2.761,-2.7692,-2.7694,-2.7696,-2.7693,-2.7697,-2.77,0,0,0,0,0,0,-2.7307,-2.7348,-2.7352,-2.7392,-2.742,-2.7456,-2.7475,-2.7482,-2.7512,-2.7511,-2.7532,-2.7541,-2.7582,-2.76,-2.7583,-2.7652,-2.7643,-2.7648,-2.7637,-2.7641,-2.7643,-2.7637,-2.7584,0,0,0,0,0,-2.7311,-2.7339,-2.7373,-2.7406,-2.7419,-2.7445,-2.7464,-2.7475,-2.7504,-2.7516,-2.754,-2.757,-2.7602,-2.7623,-2.7655,-2.7698,-2.7707,-2.7717,-2.7719,-2.7721,-2.7724,-2.775,-2.7754,-2.7706,-2.7706,-2.7705,0,0,-2.7317,-2.7343,-2.7359,-2.7405,-2.7427,-2.7458,-2.7455,-2.7486,-2.7509,-2.7521,-2.7561,-2.7581,-2.7616,-2.7658,-2.7679,-2.7675,-2.774,-2.7724,-2.7725,-2.7728,-2.7753,-2.7757,-2.7761,-2.7707,-2.7707,-2.7707,0,0,-2.7345,-2.7367,-2.7397,-2.7419,-2.7453,-2.7471,-2.7478,-2.7514,-2.7527,-2.7568,-2.7578,-2.7607,-2.7662,-2.7686,-2.7705,-2.7745,-2.775,-2.7755,-2.7767,-2.7792,-2.7796,-2.7799,-2.7813,-2.7818,-2.7759,-2.7759,-2.7759,0,-2.7349,-2.7393,-2.7411,-2.7443,-2.7463,-2.7475,-2.7506,-2.7528,-2.7571,-2.7585,-2.7581,-2.7651,-2.7676,-2.7725,-2.7734,-2.775,-2.776,-2.7749,-2.7793,-2.7797,-2.7801,-2.7814,-2.7819,-2.7759,-2.7759,-2.7759,-2.7759,0,-2.7397,-2.7428,-2.7448,-2.7488,-2.7511,-2.7543,-2.7567,-2.7588,-2.7599,-2.7617,-2.766,-2.7689,-2.7727,-2.7741,-2.7751,-2.7792,-2.7789,-2.7789,-2.778,-2.7805,-2.7818,-2.7824,-2.7759,-2.7759,-2.7759,-2.7759,0,0,-2.7419,-2.747,-2.7477,-2.7496,-2.7536,-2.7561,-2.7594,-2.7631,-2.7648,-2.7679,-2.7707,-2.7755,-2.7756,-2.7778,-2.7792,-2.7813,-2.7843,-2.7811,-2.7812,-2.7815,-2.7891,-2.7889,-2.7895,-2.7848,-2.7849,-2.785,-2.7887,0,-2.7451,-2.7507,-2.7526,-2.7574,-2.7603,-2.7617,-2.7646,-2.7674,-2.7693,-2.7722,-2.7743,-2.7776,-2.7775,-2.7789,-2.7811,-2.7834,-2.7858,-2.7832,-2.7875,-2.7876,-2.7864,-2.7901,-2.79,-2.7934,-2.7893,-2.7894,-2.7894,0,-2.7494,-2.7524,-2.7574,-2.7611,-2.7624,-2.765,-2.7685,-2.7713,-2.7746,-2.7759,-2.7785,-2.7797,-2.7833,-2.7825,-2.7876,-2.7858,-2.7877,-2.7892,-2.7893,-2.7897,-2.7885,-2.7905,-2.7945,-2.795,-2.7903,-2.7902,-2.7901,0,-2.7504,-2.7558,-2.7595,-2.7611,-2.7655,-2.7673,-2.7692,-2.7725,-2.7746,-2.7778,-2.7793,-2.7829,-2.7849,-2.7878,-2.7901,-2.7892,-2.795,-2.7943,-2.7962,-2.7961,-2.7972,-2.797,-2.8014,-2.7986,-2.7986,-2.7986,-2.7986,0,-2.7536,-2.7567,-2.76,-2.7623,-2.7658,-2.7681,-2.7715,-2.7736,-2.7765,-2.7793,-2.7808,-2.7835,-2.7864,-2.7894,-2.7913,-2.7953,-2.7962,-2.7974,-2.7978,-2.7971,-2.797,-2.7983,-2.7981,-2.7988,-2.7987,-2.7987,-2.7987,0,-2.7553,-2.7577,-2.7618,-2.7657,-2.7668,-2.7692,-2.7726,-2.7749,-2.777,-2.7805,-2.7815,-2.7847,-2.7885,-2.7911,-2.7959,-2.7972,-2.8014,-2.8019,-2.8002,-2.8004,-2.8021,-2.8019,-2.8074,-2.8083,-2.805,-2.805,-2.805,0,-2.7571,-2.7595,-2.7636,-2.7655,-2.7675,-2.7706,-2.7728,-2.7752,-2.7775,-2.7815,-2.7834,-2.7873,-2.7904,-2.7963,-2.7992,-2.8029,-2.8035,-2.8051,-2.804,-2.8033,-2.8034,-2.8032,-2.8034,-2.8052,-2.8053,-2.8053,-2.8053,0,-2.7601,-2.7612,-2.7642,-2.7677,-2.7703,-2.7732,-2.7761,-2.7776,-2.7806,-2.7831,-2.7869,-2.7893,-2.7943,-2.7981,-2.8021,-2.8043,-2.8053,-2.8057,-2.8063,-2.8056,-2.8045,-2.805,-2.8006,-2.8055,-2.8055,-2.8054,-2.8054,-2.8054,-2.7619,-2.764,-2.7673,-2.7706,-2.7731,-2.7758,-2.7782,-2.7806,-2.7838,-2.7879,-2.7892,-2.7931,-2.7966,-2.8021,-2.8044,-2.8077,-2.8075,-2.8085,-2.8087,-2.8088,-2.8088,-2.8041,-2.8084,-2.8084,-2.8084,-2.8084,-2.8084,0,-2.7649,-2.767,-2.7701,-2.7741,-2.7768,-2.7775,-2.7809,-2.7831,-2.7865,-2.7896,-2.7927,-2.7972,-2.8009,-2.8042,-2.8081,-2.8101,-2.8106,-2.811,-2.8108,-2.8113,-2.8087,-2.8077,-2.8105,-2.8105,-2.8105,-2.8105,-2.8105,-2.8105,-2.7667,-2.7704,-2.7719,-2.777,-2.7792,-2.783,-2.7848,-2.7874,-2.7899,-2.7947,-2.7978,-2.7999,-2.8031,-2.8073,-2.8109,-2.8117,-2.8131,-2.8133,-2.8143,-2.8117,-2.8115,-2.8113,-2.8103,-2.8136,-2.8136,-2.8167,-2.8167,-2.8167]},{"header":{"parameterUnit":"m.s-1","parameterCategory":1,"la1":30.2991,"la2":30.254,"lo1":-89.0895,"lo2":-89.0444,"dy":0.0017,"dx":0.0017,"nx":28,"ny":28,"refTime":"2024-05-02T21:00:00:Z","depth":0,"parameterNumber":3,"parameterNumberName":"V-component_of_WINDS"},"data":[0,0,0,0,0,0,0,0,0,0,0,0,0,0,0,0,0,0,0,0,0,0,0,0,0,0,0,0,0,0,0,0,0,0,0,0,0,0,0,0,0,0,0,0,0,0,0,0,0,0,0,0,0,0,0,0,0,0,5.0472,5.0472,0,5.0457,5.0456,5.0456,5.0452,5.0452,5.0452,5.0452,5.0433,5.0432,5.0432,0,0,0,0,0,0,0,0,0,0,0,0,0,5.0496,5.0495,5.0472,5.0472,5.0472,5.0457,5.0456,5.0456,5.0452,5.0452,5.0452,5.0452,5.0433,5.0433,5.0432,0,0,0,0,0,0,0,0,0,0,0,0,0,5.0483,5.0495,5.0472,5.0468,5.0467,5.0457,5.0456,5.0456,5.0452,5.0452,5.0452,5.0452,5.0433,5.0433,5.0432,5.0423,0,0,5.0429,5.0429,0,0,0,0,0,0,0,0,5.0484,5.0483,5.0469,5.0468,5.0468,5.0456,5.0458,5.0445,5.0452,5.0458,5.0452,5.0452,5.044,5.0439,5.0436,5.0422,5.0422,5.0429,5.0428,5.0428,5.0428,0,0,0,0,0,0,0,5.0485,5.0483,5.0466,5.0468,5.0468,5.0466,5.0464,5.0455,5.0448,5.0457,5.0457,5.0455,5.044,5.0437,5.0435,5.0421,5.0429,5.0428,5.0428,5.0427,5.0401,5.0401,0,0,0,0,0,0,5.0487,5.0484,5.0466,5.0465,5.0476,5.0465,5.0464,5.046,5.0448,5.0447,5.0455,5.0455,5.0438,5.0436,5.0435,5.0424,5.0428,5.0427,5.0427,5.0401,5.0401,5.0401,0,0,0,0,0,0,5.0488,5.0485,5.0467,5.0475,5.0472,5.0465,5.0461,5.0459,5.0456,5.0447,5.0445,5.0453,5.0438,5.0436,5.0427,5.0424,5.0427,5.0426,5.0401,5.0401,5.0401,5.0404,0,0,0,0,0,0,5.0488,5.0486,5.0483,5.0475,5.0472,5.046,5.046,5.0459,5.0455,5.0454,5.0444,5.0443,5.0438,5.0428,5.0426,5.0422,5.0425,5.0402,5.0401,5.0401,5.0404,5.0404,5.0403,0,0,0,0,0,5.0489,5.0484,5.0483,5.0481,5.0468,5.046,5.0458,5.0454,5.0454,5.0451,5.0446,5.0443,5.0424,5.0427,5.0424,5.0421,5.0402,5.0401,5.0401,5.0404,5.0404,5.0403,0,0,0,0,0,0,5.049,5.0482,5.0481,5.0473,5.0467,5.0459,5.0455,5.0453,5.0446,5.0446,5.044,5.0438,5.0429,5.0424,5.0427,5.0412,5.0413,5.0412,5.0416,5.0416,5.0416,5.0417,5.0425,0,0,0,0,0,5.049,5.0485,5.0477,5.0471,5.0468,5.0462,5.0458,5.0455,5.0449,5.0446,5.044,5.0432,5.0425,5.042,5.0413,5.0403,5.0401,5.04,5.0399,5.0399,5.0398,5.0393,5.0393,5.04,5.04,5.04,0,0,5.0488,5.0483,5.048,5.0471,5.0466,5.046,5.046,5.0453,5.0449,5.0444,5.0436,5.0431,5.0423,5.0413,5.0409,5.0409,5.0396,5.0399,5.0399,5.0398,5.0393,5.0392,5.0392,5.0399,5.0399,5.0399,0,0,5.0483,5.0479,5.0473,5.0468,5.0462,5.0458,5.0457,5.0449,5.0446,5.0437,5.0434,5.0428,5.0415,5.041,5.0405,5.0398,5.0396,5.0396,5.0395,5.039,5.0389,5.0389,5.0387,5.0386,5.0395,5.0395,5.0395,0,5.0482,5.0473,5.047,5.0464,5.046,5.0457,5.0451,5.0447,5.0437,5.0434,5.0435,5.0419,5.0413,5.0403,5.0402,5.0398,5.0396,5.0397,5.039,5.0389,5.0389,5.0387,5.0386,5.0395,5.0395,5.0395,5.0395,0,5.0472,5.0466,5.0462,5.0455,5.0451,5.0444,5.044,5.0436,5.0433,5.0429,5.0421,5.0414,5.0405,5.0403,5.04,5.0392,5.0392,5.0391,5.0392,5.0388,5.0386,5.0385,5.0396,5.0396,5.0396,5.0395,0,0,5.0466,5.0458,5.0456,5.0453,5.0446,5.0441,5.0435,5.0428,5.0424,5.0418,5.0412,5.0402,5.0402,5.0397,5.0393,5.0389,5.0385,5.0389,5.0389,5.0388,5.0376,5.0377,5.0376,5.0383,5.0383,5.0383,5.0377,0,5.046,5.045,5.0447,5.0438,5.0432,5.043,5.0425,5.042,5.0416,5.041,5.0406,5.0399,5.0399,5.0396,5.0392,5.0386,5.0382,5.0387,5.0377,5.0377,5.038,5.0375,5.0375,5.0369,5.0376,5.0376,5.0376,0,5.045,5.0446,5.0437,5.0431,5.0428,5.0424,5.0417,5.0412,5.0406,5.0403,5.0398,5.0396,5.0389,5.039,5.038,5.0383,5.0379,5.0376,5.0376,5.0375,5.0376,5.0373,5.0367,5.0367,5.0374,5.0374,5.0374,0,5.0447,5.0438,5.0432,5.0429,5.0422,5.0419,5.0416,5.041,5.0406,5.04,5.0397,5.039,5.0386,5.0381,5.0376,5.0377,5.0367,5.0367,5.0364,5.0364,5.0361,5.0362,5.0355,5.0359,5.0359,5.0359,5.0359,0,5.044,5.0435,5.043,5.0426,5.042,5.0417,5.0411,5.0407,5.0402,5.0397,5.0394,5.0389,5.0384,5.0378,5.0374,5.0367,5.0365,5.0362,5.0361,5.0362,5.0363,5.036,5.036,5.0359,5.0359,5.0359,5.0359,0,5.0435,5.0432,5.0425,5.0419,5.0418,5.0414,5.0408,5.0404,5.0401,5.0395,5.0393,5.0387,5.0381,5.0376,5.0366,5.0364,5.0356,5.0355,5.0358,5.0358,5.0355,5.0355,5.0346,5.0345,5.035,5.035,5.035,0,5.0431,5.0427,5.0421,5.0418,5.0415,5.041,5.0407,5.0403,5.0399,5.0393,5.0389,5.0383,5.0377,5.0366,5.0361,5.0354,5.0353,5.035,5.0352,5.0353,5.0353,5.0353,5.0353,5.035,5.035,5.035,5.035,0,5.0423,5.0422,5.0418,5.0413,5.0409,5.0405,5.04,5.0398,5.0393,5.0389,5.0383,5.0379,5.037,5.0364,5.0356,5.0352,5.035,5.0349,5.0348,5.0349,5.0351,5.035,5.0358,5.0349,5.0349,5.0349,5.0349,5.0349,5.0419,5.0415,5.0411,5.0406,5.0403,5.0399,5.0395,5.0392,5.0387,5.038,5.0378,5.0372,5.0366,5.0356,5.0352,5.0347,5.0347,5.0345,5.0345,5.0344,5.0344,5.0353,5.0345,5.0345,5.0345,5.0345,5.0345,0,5.0411,5.0409,5.0404,5.0399,5.0395,5.0395,5.039,5.0386,5.0381,5.0376,5.0372,5.0364,5.0358,5.0353,5.0346,5.0343,5.0342,5.0341,5.0341,5.034,5.0345,5.0346,5.0342,5.0342,5.0342,5.0342,5.0342,5.0342,5.0407,5.0401,5.04,5.0392,5.039,5.0384,5.0381,5.0378,5.0374,5.0367,5.0362,5.0359,5.0354,5.0347,5.0342,5.034,5.0338,5.0337,5.0336,5.034,5.034,5.034,5.0342,5.0337,5.0337,5.0332,5.0332,5.0332]}]]